Location: Deurze
(52.9838°N, 6.6090°E)
Time: 18:37:09
(UTC+00:00)

SJ-6B - Pass Details

Date: 11 March 2026
Orbit: 455 x 498 km, 97.3° (Epoch: 20 April)

Event Time Altitude Azimuth Distance (km) Brightness Sun altitude
Rises 17:57:58 0° 145° (SE) 2,512 5.8 -5.0°
Reaches altitude 10° 18:00:05 10° 138° (SE) 1,647 4.9 -5.3°
Maximum altitude 18:03:23 39° 69° (ENE) 744 3.1 -5.8°
Drops below altitude 10° 18:06:47 10° 360° (N) 1,686 5.4 -6.3°
Sets 18:08:57 0° 352° (N) 2,581 6.4 -6.6°
